{"data":{"norad_id":48659,"intl_designator":"2021-044X","name":"STARLINK-2717","alt_names":[],"object_type":"PAYLOAD","status":"ACTIVE","operator":null,"country":"US","launch_date":"2021-05-26","launch_site_code":"AFETR","launch_vehicle":null,"mission":null,"orbit_class":"UNKNOWN","rcs_meters":null,"size_class":null,"mass_kg":null,"dimensions":null,"purposes":["comms"],"wikipedia_slug":null,"has_3d_model":false,"image_url":null,"decayed_at":null,"tle_current":{"epoch":"2026-09-18T09:10:48.137376Z","epoch_age_seconds":220282,"freshness":"STALE","line1":"1 48659U 21044X   26261.38250159  .00000188  00000+0  17826-4 0  9997","line2":"2 48659  53.1595 297.1025 0001200  87.8373 272.2765 15.31701996293352","mean_motion":15.31701996,"eccentricity":0.00012,"inclination_deg":53.1595,"raan_deg":297.1025,"arg_perigee_deg":87.8373,"mean_anomaly_deg":272.2765,"bstar":1.7826e-5,"rev_number":29335,"period_min":94.013065450102,"perigee_km":469.91218073454,"apogee_km":471.5559097854,"semimajor_km":6848.87104526,"source":"CELESTRAK","updated_at":"2026-09-20T09:00:39.143235Z"}}}